Location: Sternwarte ZA, Rosenfeld-Brittheim
(48.2889°N, 8.6789°E)
Time: 15:16:21
(UTC+02:00)

ISS - Pass Details

Date: 13 October 2017
Orbit: 401 x 408 km, 51.6° (Epoch: 18 October)

Event Time Altitude Azimuth Distance (km) Brightness Sun altitude
Rises 20:05:24 0° 289° (WNW) 2,326 1.6 -15.0°
Reaches altitude 10° 20:07:39 10° 278° (W) 1,464 0.4 -15.3°
Maximum altitude 20:10:32 28° 216° (SW) 788 -2.1 -15.8°
Enters shadow 20:12:38 15° 163° (SSE) 1,200 -1.7 -16.2°
